K7OLI-13 Weather Reports


Display with metric or nautical units.
time (UTC)temp
F
wind
direction
speed
MPH
gust
MPH
rain 1hr
in
rain 24hr
in
rain mn
in
humidity
%
barometer
mb
20260904120528 53 270 1.0 2.0 0.00 0.51 0.12 99
20260904115536 53 293 1.0 2.0 0.00 0.51 0.12 99
20260904114528 53 0.0 0.0 0.00 0.51 0.12 99
20260904113534 53 293 0.0 2.0 0.00 0.51 0.12 99
20260904112523 54 168 1.0 2.0 0.01 0.51 0.12 99
20260904111533 54 55 0.0 3.0 0.02 0.51 0.12 99
20260904110521 54 35 2.0 3.0 0.02 0.51 0.12 99
20260904105529 54 0.0 1.0 0.03 0.51 0.12 99
20260904104537 54 353 2.0 3.0 0.03 0.51 0.12 99
20260904103527 53 338 0.0 2.0 0.03 0.51 0.12 99
20260904102534 54 0.0 0.0 0.02 0.50 0.11 99
20260904101524 54 0.0 1.0 0.02 0.49 0.10 99
20260904100532 54 45 0.0 2.0 0.03 0.49 0.10 99
20260904095522 54 68 2.0 4.0 0.04 0.48 0.09 99
20260904094530 54 35 3.0 4.0 0.05 0.48 0.09 99
20260904093537 54 23 4.0 5.0 0.07 0.48 0.09 99
20260904092528 54 35 1.0 2.0 0.08 0.48 0.09 99
20260904091535 54 0.0 0.0 0.08 0.47 0.08 99
20260904090544 54 0.0 0.0 0.07 0.46 0.07 99
20260904085532 54 12 1.0 3.0 0.05 0.44 0.05 99
20260904084521 54 40 3.0 4.0 0.04 0.43 0.04 99
20260904083529 54 32 3.0 4.0 0.02 0.41 0.02 99
20260904082519 54 0.0 0.0 0.01 0.40 0.01 99
20260904081527 54 0.0 0.0 0.00 0.39 0.00 99
20260904080535 54 0.0 0.0 0.00 0.39 0.00 99
20260904075545 54 0.0 0.0 0.00 0.39 0.00 99
20260904074533 54 0.0 0.0 0.00 0.39 0.00 99
20260904073542 54 0.0 0.0 0.00 0.39 0.00 99
20260904072533 54 0.0 0.0 0.00 0.39 0.00 99
20260904071519 54 0.0 0.0 0.00 0.39 0.00 99
20260904070527 54 0.0 0.0 0.00 0.39 0.00 99
20260904065535 54 0.0 0.0 0.00 0.39 0.39 99
20260904064527 54 0.0 0.0 0.00 0.39 0.39 99
20260904063533 54 0.0 0.0 0.00 0.39 0.39 99
20260904062522 54 0.0 0.0 0.00 0.39 0.39 99
20260904061530 54 0.0 0.0 0.00 0.39 0.39 99
20260904060539 54 0.0 0.0 0.00 0.39 0.39 99
20260904055527 54 0.0 0.0 0.00 0.40 0.39 99
20260904054556 54 0.0 0.0 0.00 0.40 0.39 99
20260904053527 54 0.0 0.0 0.00 0.40 0.39 99
20260904052533 54 0.0 0.0 0.00 0.40 0.39 99
20260904051523 54 0.0 0.0 0.00 0.41 0.39 99
20260904050531 54 225 0.0 2.0 0.00 0.41 0.39 98
20260904045520 54 229 1.0 2.0 0.00 0.41 0.39 98
20260904044528 54 70 1.0 3.0 0.00 0.41 0.39 97
20260904043557 54 78 2.0 3.0 0.00 0.41 0.39 97
20260904042548 54 66 3.0 4.0 0.01 0.41 0.39 97
20260904041533 55 51 3.0 4.0 0.01 0.41 0.39 97
20260904040523 55 72 3.0 5.0 0.01 0.41 0.39 97
20260904035531 55 61 3.0 5.0 0.01 0.41 0.39 97
20260904034521 55 87 4.0 6.0 0.03 0.41 0.39 97
20260904033528 55 90 4.0 7.0 0.06 0.41 0.39 96
20260904032557 55 111 4.0 7.0 0.07 0.40 0.38 96
20260904031527 55 127 5.0 7.0 0.07 0.40 0.38 96
20260904030536 55 125 5.0 7.0 0.07 0.40 0.38 96
20260904025543 56 113 6.0 9.0 0.07 0.40 0.38 95
20260904024531 56 124 7.0 13.0 0.05 0.38 0.36 95
20260904023520 56 126 4.0 7.0 0.02 0.35 0.33 93
20260904022528 57 130 4.0 5.0 0.00 0.33 0.31 91
20260904021556 57 127 4.0 5.0 0.00 0.33 0.31 91
20260904020608 57 128 4.0 6.0 0.01 0.33 0.31 91
20260904015556 57 129 3.0 5.0 0.01 0.33 0.31 90
20260904014523 57 114 4.0 6.0 0.01 0.33 0.31 90
20260904013551 57 119 5.0 6.0 0.01 0.33 0.31 87
20260904012538 58 121 4.0 7.0 0.01 0.33 0.31 88
20260904011527 58 110 4.0 7.0 0.01 0.33 0.31 87
20260904010537 59 105 6.0 7.0 0.01 0.32 0.30 91
20260904005525 59 85 4.0 5.0 0.01 0.32 0.30 92
20260904004532 59 82 5.0 6.0 0.01 0.33 0.30 91
20260904003521 59 69 3.0 4.0 0.01 0.34 0.30 91
20260904002529 58 118 2.0 3.0 0.01 0.34 0.30 93
20260904001519 58 73 4.0 6.0 0.01 0.34 0.30 92
20260904000528 58 101 5.0 7.0 0.01 0.33 0.29 89
20260903235540 59 81 5.0 7.0 0.02 0.33 0.29 88
20260903234524 59 68 5.0 6.0 0.03 0.33 0.29 86
20260903233532 59 77 4.0 5.0 0.04 0.33 0.29 86
20260903232523 59 83 5.0 6.0 0.04 0.33 0.29 88
20260903231530 57 89 3.0 4.0 0.04 0.33 0.29 93
20260903230520 57 123 2.0 3.0 0.03 0.42 0.28 92
20260903225527 57 172 3.0 5.0 0.04 0.45 0.27 91
20260903224536 58 205 5.0 7.0 0.05 0.46 0.26 89
20260903223524 58 174 4.0 6.0 0.09 0.47 0.25 86
20260903222532 58 184 2.0 4.0 0.10 0.48 0.25 88
20260903221217 55 100 2.0 2.0 0.10 0.48 0.25 92
20260903220033 54 110 3.0 4.0 0.10 0.48 0.25 91
20260903215024 54 174 5.0 8.0 0.06 0.45 0.21 91
20260903214030 55 170 8.0 10.0 0.03 0.42 0.18 90
20260903213020 56 171 6.0 9.0 0.00 0.39 0.15 87
20260903212028 58 181 8.0 13.0 0.00 0.40 0.15 79
20260903211056 57 170 4.0 7.0 0.00 0.40 0.15 79
20260903210026 58 191 5.0 8.0 0.00 0.40 0.15 78
20260903205033 58 199 8.0 13.0 0.00 0.41 0.15 77
20260903204043 58 198 8.0 11.0 0.00 0.41 0.15 78
20260903203030 60 185 8.0 12.0 0.00 0.41 0.15 79
20260903202020 60 142 8.0 11.0 0.00 0.41 0.15 79
20260903201027 59 122 8.0 12.0 0.00 0.41 0.15 84
20260903200036 59 152 7.0 11.0 0.00 0.41 0.15 85
20260903195024 59 134 8.0 12.0 0.00 0.41 0.15 84
20260903194053 59 144 8.0 10.0 0.00 0.41 0.15 83
20260903193021 60 122 10.0 17.0 0.00 0.42 0.15 81
20260903192108 60 150 8.0 15.0 0.00 0.42 0.15 81
20260903191117 60 130 10.0 17.0 0.00 0.43 0.15 81
20260903190026 60 119 10.0 14.0 0.00 0.43 0.15 83
20260903185033 60 125 9.0 13.0 0.00 0.45 0.15 86
20260903184024 59 107 9.0 11.0 0.00 0.46 0.15 87
20260903183030 59 106 8.0 11.0 0.00 0.50 0.15 88
20260903182020 59 132 10.0 14.0 0.01 0.53 0.15 90
20260903181028 59 118 8.0 12.0 0.04 0.55 0.15 91
20260903180055 58 102 9.0 15.0 0.06 0.57 0.15 90
20260903175024 58 129 9.0 12.0 0.07 0.57 0.15 91
20260903174032 57 124 6.0 9.0 0.07 0.57 0.15 92
20260903173023 57 118 7.0 10.0 0.07 0.58 0.15 92
20260903172030 57 122 5.0 7.0 0.06 0.57 0.14 92
20260903171019 58 162 6.0 8.0 0.04 0.55 0.11 90
20260903170027 58 144 7.0 14.0 0.02 0.54 0.09 88
20260903165035 59 133 8.0 13.0 0.01 0.53 0.08 83
20260903164024 61 133 9.0 15.0 0.01 0.53 0.08 80
20260903163032 61 132 11.0 17.0 0.01 0.53 0.08 80
20260903162022 61 123 10.0 16.0 0.01 0.53 0.08 82
20260903161240 58 8.0 8.0 0.00 0.52 0.07 88
20260903160037 57 147 8.0 11.0 0.00 0.52 0.07 90
20260903155046 56 135 7.0 13.0 0.00 0.52 0.07 91
20260903154035 56 123 7.0 9.0 0.00 0.52 0.07 91
20260903153023 56 123 7.0 13.0 0.00 0.52 0.07 92
20260903152031 55 119 8.0 13.0 0.00 0.52 0.07 94
20260903151021 55 108 6.0 9.0 0.00 0.52 0.07 95
20260903150108 55 115 8.0 11.0 0.01 0.52 0.07 95
20260903145036 54 128 7.0 9.0 0.02 0.52 0.07 97
20260903144027 54 102 5.0 8.0 0.04 0.52 0.07 98
20260903143034 54 102 5.0 9.0 0.05 0.52 0.07 98
20260903142023 54 113 5.0 7.0 0.07 0.52 0.07 98
20260903141032 54 130 6.0 9.0 0.07 0.52 0.07 97
20260903140020 54 105 7.0 11.0 0.06 0.51 0.06 97
20260903135028 55 123 7.0 9.0 0.05 0.50 0.05 97
20260903134040 55 132 9.0 11.0 0.03 0.48 0.03 96
20260903133025 55 135 8.0 11.0 0.02 0.47 0.02 96
20260903132032 55 101 6.0 8.0 0.00 0.45 0.00 95
20260903131024 55 121 7.0 10.0 0.00 0.45 0.00 93
20260903130032 56 143 8.0 12.0 0.00 0.45 0.00 90
20260903125019 56 114 8.0 12.0 0.00 0.45 0.00 91
20260903124027 56 133 7.0 11.0 0.00 0.45 0.00 91
20260903123035 56 127 7.0 10.0 0.00 0.45 0.00 91
20260903122024 55 118 7.0 9.0 0.00 0.45 0.00 92
20260903121110 55 121 8.0 11.0 0.00 0.45 0.00 92